Location: Unspecified
(0.0000°N, 0.0000°E)
Time: 17:15:56
(UTC+00:00)

OTV 5 (USA 277) - Visible Passes

Search period start: 21 November 2017 00:00
Search period end: 01 December 2017 00:00
Orbit: 404 x 417 km, 43.0° (Epoch: 07 September)

Date Brightness Start Highest point End Pass type
(mag) Time Alt. Az. Time Alt. Az. Time Alt. Az.
21 Nov ? 19:24:01 10° SSW 19:25:30 20° S 19:25:30 20° S visible
22 Nov ? 18:33:53 10° S 18:35:57 15° SE 18:37:15 13° ESE visible
23 Nov ? 19:18:49 10° WSW 19:21:49 50° WNW 19:21:49 50° WNW visible
24 Nov ? 18:27:43 10° SW 18:31:04 67° SE 18:33:38 16° NE visible
25 Nov ? 19:15:44 10° WNW 19:17:13 12° NW 19:18:15 11° NNW visible
26 Nov ? 05:11:56 10° N 05:14:28 20° NE 05:17:00 10° E visible
26 Nov ? 18:23:22 10° WSW 18:26:09 24° NW 18:28:56 10° N visible
27 Nov ? 04:22:44 10° NNE 04:23:25 10° NE 04:24:07 10° ENE visible
28 Nov ? 05:06:37 12° NW 05:09:34 78° SW 05:12:51 10° SE visible
29 Nov ? 04:18:26 43° NE 04:18:33 44° NE 04:21:42 10° ESE visible
30 Nov ? 05:02:59 12° W 05:04:41 16° SW 05:06:51 10° S visible
